Montrose, CO

5:46 AM MDT on May 25, 2018 (GMT -0600)
Montrose Regional

Weather History for KMTJ - November, 2011

Change the Weather History Date:

Wednesday, November 2, 2011

  Actual Average Record
Temperature  
Mean Temperature 34 °F 43 °F  
Max Temperature 39 °F 57 °F 73 °F (2008)
Min Temperature 26 °F 29 °F 17 °F (2004)
Degree Days  
Heating Degree Days 32 22  
Month to date heating degree days 43  
Since 1 July heating degree days 634  
Cooling Degree Days 0 0  
Month to date cooling degree days 0  
Year to date cooling degree days 643  
Moisture  
Dew Point 27 °F    
Average Humidity 81    
Maximum Humidity 100    
Minimum Humidity 51    
Precipitation  
Precipitation 0.05 in 0.03 in 0.16 in (1998)
Month to date precipitation 0.06  
Year to date precipitation 9.90  
Sea Level Pressure  
Sea Level Pressure 30.19 in    
Wind  
Wind Speed 10 mph (West)    
Max Wind Speed 26 mph    
Max Gust Speed 38 mph    
Visibility 6 miles    
Events Snow    
T = Trace of Precipitation, MM = Missing Value Source: NWS Daily Summary

Daily Weather History Graph

Daily Weather History Graph

Search for Another Location

Airport or City:

Astronomy

Nov. 02, 2011 Rise Set
Actual Time 7:38 AM MDT 6:10 PM MDT
Civil Twilight 7:11 AM MDT 6:38 PM MDT
Nautical Twilight 6:40 AM MDT 7:09 PM MDT
Astronomical Twilight 6:09 AM MDT 7:40 PM MDT
Moon 2:00 PM MDT (11/2) No Moon Set
Length of Visible Light 11h 26m
Length of Day
10h 31m
Waxing Crescent, 51% of the Moon is Illuminated
Nov 2
Waxing Crescent
Nov 10
Full
Nov 18
Last Quarter
Nov 24
New
Dec 2
First Quarter

Hourly Weather History & Observations

Time (MDT) Temp. Windchill Dew Point Humidity Pressure Visibility Wind Dir Wind Speed Gust Speed Precip Events Conditions
12:12 AM 33.8 °F 25.3 °F 30.2 °F 87% 30.03 in 4.0 mi WNW 11.5 mph 17.3 mph 0.00 in Snow Light Snow
12:20 AM 33.8 °F 26.4 °F 30.2 °F 87% 30.03 in 1.8 mi NW 9.2 mph - 0.00 in Snow Light Snow
12:29 AM 33.8 °F 27.7 °F 28.4 °F 81% 30.03 in 3.0 mi NW 6.9 mph - 0.00 in Snow Light Snow
12:48 AM 33.8 °F 27.7 °F 28.4 °F 81% 30.04 in 2.0 mi WNW 6.9 mph - 0.00 in Snow Light Snow
12:53 AM 34.0 °F 28.0 °F 28.9 °F 82% 29.92 in 2.5 mi NW 6.9 mph - 0.00 in Snow Light Snow
1:09 AM 33.8 °F 27.7 °F 28.4 °F 81% 30.04 in 1.8 mi NW 6.9 mph - 0.01 in Snow Light Snow
1:18 AM 33.8 °F 30.8 °F 28.4 °F 81% 30.03 in 1.5 mi Variable 3.5 mph - 0.01 in Snow Light Snow
1:22 AM 32.0 °F - 28.4 °F 87% 30.03 in 2.0 mi Calm Calm - 0.01 in Snow Light Snow
1:32 AM 33.8 °F 27.7 °F 28.4 °F 81% 30.04 in 4.0 mi WSW 6.9 mph - 0.01 in Snow Light Snow
1:47 AM 32.0 °F 23.0 °F 30.2 °F 93% 30.04 in 1.8 mi West 11.5 mph - 0.01 in Snow Light Snow
1:53 AM 32.0 °F 24.2 °F 30.0 °F 92% 29.92 in 1.2 mi WNW 9.2 mph - 0.01 in Snow Light Snow
1:55 AM 32.0 °F 24.2 °F 30.2 °F 93% 30.04 in 1.0 mi West 9.2 mph - 0.00 in Snow Light Snow
2:03 AM 32.0 °F 24.8 °F 30.2 °F 93% 30.04 in 0.8 mi West 8.1 mph - 0.01 in Snow Light Snow
2:19 AM 30.2 °F 20.8 °F 30.2 °F 100% 30.04 in 0.8 mi West 11.5 mph - 0.04 in Snow Light Snow
2:26 AM 30.2 °F 21.9 °F 30.2 °F 100% 30.04 in 1.2 mi West 9.2 mph 17.3 mph 0.04 in Snow Light Snow
2:53 AM 30.9 °F 18.1 °F 30.0 °F 96% 29.93 in 1.8 mi WNW 21.9 mph 27.6 mph 0.04 in Snow Light Snow
3:01 AM 30.2 °F 16.2 °F 28.4 °F 93% 30.05 in 2.0 mi WNW 25.3 mph 29.9 mph 0.00 in Snow Light Snow
3:53 AM 30.0 °F 15.7 °F 28.0 °F 92% 29.99 in 1.0 mi WNW 26.5 mph 38.0 mph 0.00 in Snow Light Snow
4:01 AM 30.2 °F 17.1 °F 28.4 °F 93% 30.09 in 1.5 mi WNW 21.9 mph 33.4 mph 0.00 in Snow Light Snow
4:05 AM 30.2 °F 17.1 °F 28.4 °F 93% 30.09 in 2.0 mi WNW 21.9 mph 32.2 mph 0.00 in Snow Light Snow
4:53 AM 30.9 °F 17.2 °F 26.1 °F 82% 30.04 in 10.0 mi WNW 25.3 mph 33.4 mph 0.00 in   Overcast
5:53 AM 30.9 °F 18.4 °F 25.0 °F 79% 30.10 in 10.0 mi WNW 20.7 mph 29.9 mph N/A   Overcast
7:53 AM 30.9 °F 22.8 °F 23.0 °F 72% 30.24 in 10.0 mi NW 9.2 mph - N/A   Overcast
8:53 AM 30.0 °F 23.2 °F 21.0 °F 69% 30.33 in 10.0 mi NNW 6.9 mph - N/A   Mostly Cloudy
9:53 AM 32.0 °F 27.5 °F 21.9 °F 66% 30.37 in 10.0 mi WNW 4.6 mph - N/A   Overcast
11:53 AM 34.0 °F 24.2 °F 24.1 °F 67% 30.44 in 10.0 mi WNW 15.0 mph 19.6 mph N/A   Overcast
12:53 PM 36.0 °F 31.1 °F 24.1 °F 62% 30.43 in 10.0 mi WSW 5.8 mph - N/A   Mostly Cloudy
1:53 PM 35.1 °F 32.2 °F 25.0 °F 67% 30.42 in 10.0 mi SSE 3.5 mph - N/A   Overcast
2:53 PM 37.9 °F 32.1 °F 26.1 °F 62% 30.41 in 10.0 mi SE 8.1 mph - N/A   Partly Cloudy
4:53 PM 39.9 °F - 23.0 °F 51% 30.40 in 10.0 mi Calm Calm - N/A   Clear
5:53 PM 37.0 °F 32.4 °F 23.0 °F 57% 30.43 in 10.0 mi SSW 5.8 mph - N/A   Clear
6:53 PM 33.1 °F 26.1 °F 25.0 °F 72% 30.47 in 10.0 mi ESE 8.1 mph - N/A   Clear
7:53 PM 30.0 °F 23.2 °F 24.1 °F 79% 30.49 in 10.0 mi SE 6.9 mph - N/A   Clear
8:53 PM 28.9 °F 21.1 °F 23.0 °F 78% 30.50 in 10.0 mi ESE 8.1 mph - N/A   Clear
9:53 PM 28.9 °F 20.4 °F 23.0 °F 78% 30.51 in 10.0 mi SE 9.2 mph - N/A   Clear
10:53 PM 28.0 °F 19.3 °F 21.9 °F 78% 30.52 in 10.0 mi SE 9.2 mph - N/A   Clear
11:53 PM 26.1 °F 17.6 °F 21.0 °F 81% 30.53 in 10.0 mi SE 8.1 mph - N/A   Clear